When you browse on this site, cookies collect data to enhance your experience and personalize the content and advertising you see.
Visit our Privacy Policy to learn more. By continuing to use the site, you agree to this use of cookies and data.
  • In Romania
  • List of Countries
  • For 7 days
  • Water Temperature
  • Weather Map
  • Weather Widgets
  • user-avatar
    Login

    Hourly Weather Seoni Malwa

    Today, 6 December, Friday

    Time Temperature Precipitation Wind Pressure Humidity
    00:00 +16°C° 0 mm 2 mps 735 mmHg 41%
    01:00 +15°C° 0 mm 2 mps 735 mmHg 43%
    02:00 +15°C° 0 mm 2 mps 735 mmHg 44%
    03:00 +15°C° 0 mm 2 mps 735 mmHg 45%
    04:00 +14°C° 0 mm 2 mps 735 mmHg 46%
    05:00 +14°C° 0 mm 2 mps 735 mmHg 49%
    06:00 +15°C° 0 mm 2 mps 735 mmHg 48%
    07:00 +16°C° 0 mm 2 mps 736 mmHg 47%
    08:00 +17°C° 0 mm 2 mps 737 mmHg 47%
    09:00 +19°C° 0 mm 2 mps 736 mmHg 42%
    10:00 +23°C° 0 mm 2 mps 736 mmHg 37%
    11:00 +25°C° 0 mm 3 mps 736 mmHg 33%
    12:00 +26°C° 0 mm 3 mps 735 mmHg 32%
    13:00 +26°C° 0 mm 3 mps 734 mmHg 30%
    14:00 +27°C° 0 mm 3 mps 734 mmHg 29%
    15:00 +26°C° 0 mm 2 mps 734 mmHg 34%
    16:00 +24°C° 0 mm 2 mps 734 mmHg 38%
    17:00 +21°C° 0 mm 2 mps 734 mmHg 43%
    18:00 +20°C° 0 mm 2 mps 734 mmHg 44%
    19:00 +20°C° 0 mm 1 mps 734 mmHg 45%
    20:00 +20°C° 0 mm 1 mps 735 mmHg 47%
    21:00 +19°C° 0 mm 1 mps 735 mmHg 49%
    22:00 +19°C° 0 mm 1 mps 734 mmHg 51%
    23:00 +18°C° 0 mm 1 mps 734 mmHg 52%

    Tomorrow, 7 December, Saturday

    Time Temperature Precipitation Wind Pressure Humidity
    00:00 +17°C° 0 mm 2 mps 734 mmHg 54%
    01:00 +17°C° 0 mm 2 mps 734 mmHg 55%
    02:00 +17°C° 0 mm 2 mps 734 mmHg 56%
    03:00 +17°C° 0 mm 2 mps 734 mmHg 56%
    04:00 +17°C° 0 mm 2 mps 734 mmHg 56%
    05:00 +16°C° 0 mm 2 mps 734 mmHg 56%
    06:00 +17°C° 0 mm 2 mps 735 mmHg 55%
    07:00 +18°C° 0 mm 2 mps 735 mmHg 55%
    08:00 +19°C° 0 mm 2 mps 736 mmHg 54%
    09:00 +21°C° 0 mm 2 mps 735 mmHg 48%
    10:00 +25°C° 0 mm 2 mps 735 mmHg 43%
    11:00 +27°C° 0 mm 2 mps 735 mmHg 38%
    12:00 +27°C° 0 mm 2 mps 734 mmHg 36%
    13:00 +28°C° 0 mm 2 mps 734 mmHg 35%
    14:00 +29°C° 0 mm 3 mps 733 mmHg 33%
    15:00 +27°C° 0 mm 2 mps 733 mmHg 38%
    16:00 +25°C° 0 mm 2 mps 733 mmHg 43%
    17:00 +24°C° 0 mm 2 mps 733 mmHg 48%
    18:00 +23°C° 0 mm 2 mps 733 mmHg 49%
    19:00 +21°C° 0 mm 2 mps 734 mmHg 51%
    20:00 +20°C° 0 mm 2 mps 734 mmHg 52%
    21:00 +19°C° 0 mm 2 mps 734 mmHg 54%
    22:00 +20°C° 0 mm 1 mps 734 mmHg 55%
    23:00 +19°C° 0 mm 1 mps 734 mmHg 57%

    Day after tomorrow, 8 December, Sunday

    Time Temperature Precipitation Wind Pressure Humidity
    00:00 +19°C° 0 mm 1 mps 734 mmHg 58%
    01:00 +19°C° 0 mm 1 mps 733 mmHg 59%
    02:00 +18°C° 0 mm 1 mps 733 mmHg 61%
    03:00 +18°C° 0 mm 1 mps 733 mmHg 62%
    04:00 +16°C° 0 mm 2 mps 733 mmHg 64%
    05:00 +16°C° 0 mm 2 mps 733 mmHg 65%
    06:00 +17°C° 0 mm 2 mps 734 mmHg 62%
    07:00 +18°C° 0 mm 2 mps 735 mmHg 59%
    08:00 +20°C° 0 mm 2 mps 736 mmHg 56%
    09:00 +23°C° 0 mm 2 mps 735 mmHg 50%
    10:00 +25°C° 0 mm 2 mps 735 mmHg 44%
    11:00 +27°C° 0 mm 2 mps 735 mmHg 38%
    12:00 +28°C° 0 mm 2 mps 735 mmHg 37%
    13:00 +29°C° 0 mm 2 mps 734 mmHg 35%
    14:00 +29°C° 0 mm 2 mps 733 mmHg 33%
    15:00 +28°C° 0 mm 2 mps 733 mmHg 37%
    16:00 +26°C° 0 mm 2 mps 733 mmHg 42%
    17:00 +25°C° 0 mm 2 mps 733 mmHg 46%
    18:00 +24°C° 0 mm 2 mps 733 mmHg 48%
    19:00 +23°C° 0 mm 2 mps 734 mmHg 50%
    20:00 +22°C° 0 mm 1 mps 734 mmHg 52%
    21:00 +21°C° 0 mm 1 mps 734 mmHg 54%
    22:00 +21°C° 0 mm 1 mps 734 mmHg 55%
    23:00 +20°C° 0 mm 1 mps 734 mmHg 56%

    9 December, Monday

    Time Temperature Precipitation Wind Pressure Humidity
    00:00 +20°C° 0 mm 1 mps 734 mmHg 57%
    01:00 +19°C° 0 mm 1 mps 734 mmHg 59%
    02:00 +19°C° 0 mm 1 mps 734 mmHg 60%
    03:00 +19°C° 0 mm 1 mps 734 mmHg 61%
    04:00 +17°C° 0 mm 2 mps 733 mmHg 63%
    05:00 +17°C° 0 mm 2 mps 733 mmHg 64%
    06:00 +18°C° 0 mm 2 mps 734 mmHg 62%
    07:00 +19°C° 0 mm 2 mps 735 mmHg 60%
    08:00 +20°C° 0 mm 2 mps 735 mmHg 58%
    09:00 +23°C° 0 mm 2 mps 735 mmHg 53%
    10:00 +26°C° 0 mm 2 mps 735 mmHg 47%
    11:00 +28°C° 0 mm 1 mps 735 mmHg 41%
    12:00 +28°C° 0 mm 1 mps 734 mmHg 40%
    13:00 +29°C° 0 mm 2 mps 734 mmHg 38%
    14:00 +30°C° 0 mm 2 mps 733 mmHg 37%
    15:00 +28°C° 0 mm 2 mps 733 mmHg 41%
    16:00 +27°C° 0 mm 2 mps 733 mmHg 45%
    17:00 +25°C° 0 mm 2 mps 732 mmHg 49%
    18:00 +24°C° 0 mm 2 mps 733 mmHg 50%
    19:00 +23°C° 0 mm 2 mps 733 mmHg 51%
    20:00 +23°C° 0 mm 1 mps 733 mmHg 52%
    21:00 +22°C° 0 mm 1 mps 733 mmHg 54%
    22:00 +21°C° 0 mm 1 mps 733 mmHg 55%
    23:00 +21°C° 0 mm 1 mps 733 mmHg 56%

    10 December, Tuesday

    Time Temperature Precipitation Wind Pressure Humidity
    00:00 +20°C° 0 mm 1 mps 733 mmHg 57%
    01:00 +20°C° 0 mm 1 mps 733 mmHg 58%
    02:00 +20°C° 0 mm 1 mps 732 mmHg 59%
    03:00 +19°C° 0 mm 1 mps 732 mmHg 61%
    04:00 +17°C° 0 mm 2 mps 732 mmHg 63%
    05:00 +17°C° 0 mm 2 mps 732 mmHg 65%
    06:00 +18°C° 0 mm 2 mps 733 mmHg 62%
    07:00 +19°C° 0 mm 2 mps 733 mmHg 59%
    08:00 +20°C° 0 mm 2 mps 734 mmHg 57%
    09:00 +23°C° 0 mm 2 mps 734 mmHg 51%
    10:00 +26°C° 0 mm 2 mps 734 mmHg 44%
    11:00 +28°C° 0 mm 2 mps 734 mmHg 38%
    12:00 +29°C° 0 mm 2 mps 733 mmHg 36%
    13:00 +29°C° 0 mm 1 mps 732 mmHg 34%
    14:00 +30°C° 0 mm 1 mps 731 mmHg 32%
    15:00 +28°C° 0 mm 1 mps 731 mmHg 36%
    16:00 +27°C° 0 mm 1 mps 731 mmHg 41%
    17:00 +25°C° 0 mm 1 mps 730 mmHg 45%
    18:00 +24°C° 0 mm 1 mps 731 mmHg 46%
    19:00 +23°C° 0 mm 1 mps 731 mmHg 48%
    20:00 +22°C° 0 mm 1 mps 732 mmHg 50%
    21:00 +22°C° 0 mm 1 mps 732 mmHg 51%
    22:00 +21°C° 0 mm 1 mps 732 mmHg 53%
    23:00 +21°C° 0 mm 1 mps 732 mmHg 54%

    11 December, Wednesday

    Time Temperature Precipitation Wind Pressure Humidity
    00:00 +20°C° 0 mm 1 mps 731 mmHg 55%
    01:00 +20°C° 0 mm 1 mps 731 mmHg 56%
    02:00 +19°C° 0 mm 1 mps 731 mmHg 57%
    03:00 +19°C° 0 mm 1 mps 731 mmHg 58%
    04:00 +18°C° 0 mm 1 mps 731 mmHg 60%
    05:00 +18°C° 0 mm 1 mps 731 mmHg 61%
    06:00 +19°C° 0 mm 1 mps 732 mmHg 58%
    07:00 +20°C° 0 mm 1 mps 732 mmHg 55%
    08:00 +20°C° 0 mm 2 mps 733 mmHg 53%
    09:00 +24°C° 0 mm 2 mps 733 mmHg 47%
    10:00 +26°C° 0 mm 1 mps 733 mmHg 41%
    11:00 +29°C° 0 mm 1 mps 732 mmHg 36%
    12:00 +29°C° 0 mm 1 mps 732 mmHg 34%
    13:00 +30°C° 0 mm 1 mps 731 mmHg 31%
    14:00 +30°C° 0 mm 1 mps 730 mmHg 29%
    15:00 +29°C° 0 mm 2 mps 730 mmHg 33%
    16:00 +27°C° 0 mm 2 mps 730 mmHg 37%
    17:00 +25°C° 0 mm 2 mps 730 mmHg 41%
    18:00 +24°C° 0 mm 2 mps 730 mmHg 43%
    19:00 +23°C° 0 mm 2 mps 731 mmHg 44%
    20:00 +21°C° 0 mm 2 mps 731 mmHg 45%
    21:00 +21°C° 0 mm 2 mps 731 mmHg 46%
    22:00 +20°C° 0 mm 2 mps 731 mmHg 47%
    23:00 +20°C° 0 mm 2 mps 731 mmHg 47%
    Show more